[[{"header":{"parameterUnit":"m.s-1","parameterCategory":1,"la1":30.2991,"la2":30.254,"lo1":-89.0895,"lo2":-89.0444,"dy":0.0017,"dx":0.0017,"nx":28,"ny":28,"refTime":"2024-05-17T09:00:00:Z","depth":0,"parameterNumber":2,"parameterNumberName":"U-component_of_WINDS"},"data":[0,0,0,0,0,0,0,0,0,0,0,0,0,0,0,0,0,0,0,0,0,0,0,0,0,0,0,0,0,0,0,0,0,0,0,0,0,0,0,0,0,0,0,0,0,0,0,0,0,0,0,0,0,0,0,0,0,0,-5.4492,-5.4493,0,-5.4589,-5.459,-5.4591,-5.4552,-5.455,-5.4547,-5.4545,-5.4643,-5.4648,-5.4653,0,0,0,0,0,0,0,0,0,0,0,0,0,-5.4271,-5.4275,-5.4492,-5.4493,-5.4494,-5.4589,-5.459,-5.4592,-5.4552,-5.4549,-5.4547,-5.4544,-5.4642,-5.4647,-5.4653,0,0,0,0,0,0,0,0,0,0,0,0,0,-5.4368,-5.4277,-5.4491,-5.4486,-5.4486,-5.4589,-5.459,-5.4592,-5.4553,-5.4549,-5.4546,-5.4543,-5.464,-5.4647,-5.4654,-5.4767,0,0,-5.4676,-5.4679,0,0,0,0,0,0,0,0,-5.4362,-5.4376,-5.4485,-5.4486,-5.4487,-5.4555,-5.4548,-5.465,-5.4554,-5.4528,-5.4545,-5.4541,-5.4617,-5.4625,-5.4651,-5.4771,-5.4776,-5.4676,-5.4681,-5.4684,-5.4686,0,0,0,0,0,0,0,-5.4355,-5.4371,-5.453,-5.4487,-5.4488,-5.4478,-5.4488,-5.4568,-5.459,-5.453,-5.4527,-5.4539,-5.4616,-5.4644,-5.4653,-5.4777,-5.4676,-5.4682,-5.4687,-5.469,-5.4995,-5.4998,0,0,0,0,0,0,-5.4349,-5.4366,-5.4527,-5.4533,-5.4415,-5.4485,-5.4496,-5.4537,-5.4589,-5.4594,-5.4542,-5.4537,-5.4634,-5.4645,-5.4656,-5.4791,-5.4684,-5.469,-5.4694,-5.4991,-5.4996,-5.5,0,0,0,0,0,0,-5.4344,-5.4363,-5.4523,-5.4449,-5.4468,-5.4493,-5.4538,-5.454,-5.4568,-5.4599,-5.4602,-5.4566,-5.4632,-5.4646,-5.474,-5.4794,-5.4693,-5.47,-5.4986,-5.4992,-5.4998,-5.5061,0,0,0,0,0,0,-5.4338,-5.4362,-5.4405,-5.445,-5.4473,-5.4605,-5.4542,-5.4545,-5.4581,-5.4575,-5.4622,-5.4627,-5.463,-5.4729,-5.4747,-5.4802,-5.4706,-5.4981,-5.4989,-5.4996,-5.5054,-5.5069,-5.5081,0,0,0,0,0,-5.433,-5.4419,-5.4407,-5.4427,-5.4527,-5.4608,-5.4621,-5.4623,-5.4585,-5.4628,-5.4648,-5.4625,-5.4786,-5.4739,-5.4759,-5.4816,-5.4978,-5.4987,-5.4995,-5.5048,-5.5066,-5.508,0,0,0,0,0,0,-5.4378,-5.4425,-5.4412,-5.4518,-5.456,-5.4601,-5.4655,-5.4641,-5.4693,-5.4686,-5.4686,-5.4697,-5.4793,-5.4815,-5.4762,-5.4929,-5.4876,-5.4889,-5.491,-5.4927,-5.494,-5.4931,-5.4711,0,0,0,0,0,-5.4402,-5.4464,-5.4501,-5.4591,-5.4612,-5.4631,-5.4666,-5.4665,-5.4707,-5.4724,-5.475,-5.4792,-5.4852,-5.4891,-5.4948,-5.5059,-5.5068,-5.5109,-5.5122,-5.5132,-5.5142,-5.5201,-5.5219,-5.5028,-5.5028,-5.5028,0,0,-5.4449,-5.4483,-5.4522,-5.4601,-5.4633,-5.4697,-5.4645,-5.4715,-5.4763,-5.4734,-5.4823,-5.4845,-5.4892,-5.4994,-5.5041,-5.5015,-5.5198,-5.5143,-5.5151,-5.5156,-5.5212,-5.523,-5.5246,-5.5034,-5.5033,-5.5032,0,0,-5.4569,-5.4601,-5.4679,-5.4712,-5.4762,-5.4774,-5.4793,-5.4837,-5.485,-5.494,-5.492,-5.4977,-5.5081,-5.5114,-5.5145,-5.5281,-5.5261,-5.5299,-5.5366,-5.5424,-5.5439,-5.5452,-5.5498,-5.5515,-5.531,-5.531,-5.531,0,-5.4621,-5.4717,-5.4721,-5.4792,-5.4827,-5.4807,-5.4885,-5.4918,-5.4983,-5.5008,-5.4979,-5.5109,-5.5139,-5.5248,-5.5281,-5.5308,-5.5329,-5.5292,-5.5437,-5.545,-5.5463,-5.5506,-5.5524,-5.5314,-5.5314,-5.5313,-5.5313,0,-5.4779,-5.4846,-5.4903,-5.4967,-5.5009,-5.5084,-5.5099,-5.5141,-5.5137,-5.5152,-5.5244,-5.5281,-5.5344,-5.5371,-5.5367,-5.548,-5.5463,-5.5436,-5.5382,-5.5485,-5.5526,-5.5543,-5.532,-5.5319,-5.5318,-5.5316,0,0,-5.4927,-5.4994,-5.5015,-5.5043,-5.5098,-5.5149,-5.5224,-5.5287,-5.5322,-5.537,-5.5431,-5.552,-5.5496,-5.5531,-5.5531,-5.5583,-5.5685,-5.5549,-5.555,-5.5571,-5.581,-5.5828,-5.5847,-5.5675,-5.5678,-5.5681,-5.5805,0,-5.5049,-5.5179,-5.5185,-5.5303,-5.5365,-5.5348,-5.5412,-5.5453,-5.547,-5.5524,-5.5543,-5.5605,-5.557,-5.5591,-5.5641,-5.5662,-5.5733,-5.5654,-5.573,-5.5733,-5.5715,-5.5869,-5.5888,-5.6004,-5.5822,-5.5825,-5.5827,0,-5.5207,-5.5259,-5.5383,-5.5429,-5.5455,-5.5513,-5.5571,-5.5624,-5.567,-5.5679,-5.5719,-5.5713,-5.5789,-5.5737,-5.5841,-5.5787,-5.5819,-5.5835,-5.5839,-5.5843,-5.5783,-5.5875,-5.6041,-5.6057,-5.5853,-5.585,-5.5849,0,-5.53,-5.5401,-5.5488,-5.5514,-5.557,-5.5611,-5.5637,-5.5679,-5.5717,-5.5768,-5.5792,-5.5852,-5.5884,-5.5931,-5.5941,-5.5902,-5.6045,-5.5993,-5.6053,-5.6053,-5.608,-5.6078,-5.6251,-5.6107,-5.6107,-5.6107,-5.6106,0,-5.5432,-5.5509,-5.5531,-5.5584,-5.5669,-5.5677,-5.576,-5.5783,-5.5821,-5.5879,-5.5869,-5.5923,-5.5934,-5.5991,-5.6,-5.6084,-5.6099,-5.6107,-5.6108,-5.6106,-5.6105,-5.6125,-5.6116,-5.6111,-5.611,-5.6109,-5.6108,0,-5.5549,-5.5567,-5.5661,-5.5707,-5.5721,-5.5781,-5.582,-5.5871,-5.5889,-5.5961,-5.5979,-5.6005,-5.6071,-5.6087,-5.6166,-5.6172,-5.6271,-5.6265,-5.6255,-5.6253,-5.6311,-5.6304,-5.65,-5.6526,-5.6368,-5.637,-5.6371,0,-5.563,-5.5689,-5.5742,-5.578,-5.5807,-5.5868,-5.5907,-5.5917,-5.5958,-5.6015,-5.6059,-5.6125,-5.6177,-5.6283,-5.6309,-5.6369,-5.6364,-5.6428,-5.6372,-5.6369,-5.6361,-5.6356,-5.6362,-5.6438,-5.6439,-5.6441,-5.6442,0,-5.5773,-5.578,-5.5836,-5.5896,-5.5942,-5.599,-5.6035,-5.6067,-5.6084,-5.613,-5.6197,-5.6238,-5.6319,-5.6383,-5.6445,-5.647,-5.6459,-5.646,-5.6476,-5.6473,-5.6464,-5.6467,-5.6281,-5.6454,-5.6453,-5.6452,-5.6451,-5.6451,-5.5873,-5.5924,-5.5969,-5.6032,-5.6067,-5.611,-5.6161,-5.6185,-5.6241,-5.6308,-5.6311,-5.6384,-5.643,-5.651,-5.654,-5.6598,-5.6578,-5.6602,-5.6608,-5.6613,-5.6617,-5.6458,-5.6609,-5.6609,-5.6609,-5.6608,-5.6608,0,-5.6013,-5.6042,-5.61,-5.6164,-5.6213,-5.62,-5.625,-5.6292,-5.6357,-5.64,-5.6453,-5.653,-5.6593,-5.6626,-5.6688,-5.6728,-5.6724,-5.6743,-5.6739,-5.6745,-5.6632,-5.661,-5.6745,-5.6745,-5.6745,-5.6745,-5.6745,-5.6745,-5.6091,-5.6176,-5.6188,-5.6291,-5.6319,-5.6391,-5.642,-5.646,-5.6494,-5.6582,-5.6634,-5.6655,-5.6694,-5.676,-5.6817,-5.6825,-5.6847,-5.6869,-5.6873,-5.6767,-5.6753,-5.6739,-5.6719,-5.6874,-5.6874,-5.6981,-5.6982,-5.6983]},{"header":{"parameterUnit":"m.s-1","parameterCategory":1,"la1":30.2991,"la2":30.254,"lo1":-89.0895,"lo2":-89.0444,"dy":0.0017,"dx":0.0017,"nx":28,"ny":28,"refTime":"2024-05-17T09:00:00:Z","depth":0,"parameterNumber":3,"parameterNumberName":"V-component_of_WINDS"},"data":[0,0,0,0,0,0,0,0,0,0,0,0,0,0,0,0,0,0,0,0,0,0,0,0,0,0,0,0,0,0,0,0,0,0,0,0,0,0,0,0,0,0,0,0,0,0,0,0,0,0,0,0,0,0,0,0,0,0,4.1838,4.1839,0,4.1943,4.1945,4.1946,4.1889,4.1886,4.1883,4.188,4.1985,4.199,4.1996,0,0,0,0,0,0,0,0,0,0,0,0,0,4.1586,4.1591,4.1838,4.1839,4.184,4.1943,4.1945,4.1946,4.1889,4.1886,4.1882,4.1879,4.1983,4.199,4.1996,0,0,0,0,0,0,0,0,0,0,0,0,0,4.1693,4.1592,4.1838,4.1825,4.1824,4.1943,4.1945,4.1946,4.189,4.1886,4.1881,4.1877,4.1981,4.1989,4.1997,4.2133,0,0,4.2022,4.2026,0,0,0,0,0,0,0,0,4.1687,4.1703,4.1825,4.1826,4.1826,4.1899,4.1894,4.2009,4.1891,4.1865,4.188,4.1875,4.1959,4.1969,4.1998,4.2138,4.2143,4.2023,4.2028,4.2031,4.2034,0,0,0,0,0,0,0,4.168,4.1698,4.1879,4.1827,4.1827,4.1813,4.1824,4.1916,4.1935,4.1867,4.1863,4.1877,4.1959,4.199,4.2,4.2144,4.2023,4.203,4.2035,4.2038,4.2403,4.2408,0,0,0,0,0,0,4.1674,4.1692,4.1876,4.1883,4.1745,4.1821,4.1833,4.1879,4.1934,4.1938,4.188,4.1873,4.1979,4.1991,4.2004,4.2168,4.2031,4.2039,4.2043,4.2398,4.2404,4.2409,0,0,0,0,0,0,4.1668,4.1691,4.1872,4.1786,4.1808,4.183,4.1883,4.1884,4.1915,4.1944,4.1947,4.1909,4.1976,4.1992,4.2102,4.2171,4.2042,4.205,4.2393,4.24,4.2407,4.2497,0,0,0,0,0,0,4.1661,4.1689,4.1741,4.1788,4.1813,4.1969,4.1887,4.1889,4.193,4.1922,4.1972,4.1976,4.1974,4.209,4.211,4.218,4.2056,4.2387,4.2396,4.2405,4.2488,4.2506,4.2522,0,0,0,0,0,4.1653,4.1761,4.1744,4.1767,4.1879,4.1973,4.1988,4.1984,4.1936,4.1988,4.2007,4.1974,4.216,4.2102,4.2124,4.2197,4.2382,4.2393,4.2404,4.248,4.2503,4.2522,0,0,0,0,0,0,4.172,4.1767,4.1749,4.1876,4.1921,4.1963,4.2029,4.2008,4.2067,4.2057,4.2049,4.2061,4.2175,4.2197,4.2131,4.2333,4.2264,4.2279,4.2314,4.2336,4.2353,4.2345,4.2063,0,0,0,0,0,4.175,4.1824,4.186,4.1969,4.1993,4.2008,4.2048,4.2042,4.2088,4.2107,4.2133,4.2179,4.2248,4.2293,4.2358,4.2491,4.2501,4.2552,4.2569,4.2583,4.2597,4.2671,4.2694,4.2445,4.2445,4.2445,0,0,4.1812,4.1847,4.1893,4.1983,4.2018,4.2094,4.2024,4.2107,4.2163,4.2119,4.2225,4.2246,4.2297,4.242,4.2475,4.2441,4.2668,4.2597,4.2608,4.2614,4.2684,4.2708,4.2729,4.2452,4.2451,4.245,0,0,4.1964,4.1998,4.2093,4.2129,4.2183,4.2193,4.2216,4.2262,4.2275,4.2382,4.2351,4.2418,4.2536,4.2574,4.2609,4.2778,4.275,4.2799,4.2888,4.296,4.298,4.2997,4.3059,4.3081,4.2813,4.2813,4.2813,0,4.2034,4.2148,4.2144,4.223,4.2271,4.2237,4.2333,4.2368,4.244,4.2469,4.2431,4.2581,4.2612,4.2744,4.2786,4.2814,4.2841,4.2793,4.2978,4.2995,4.3011,4.307,4.3093,4.2819,4.2818,4.2817,4.2817,0,4.2232,4.2311,4.2382,4.2454,4.2503,4.2594,4.2603,4.2653,4.2643,4.2657,4.2767,4.2804,4.2876,4.2907,4.2897,4.3039,4.3016,4.2978,4.2909,4.3041,4.3095,4.3118,4.2827,4.2825,4.2823,4.2822,0,0,4.2427,4.2498,4.2524,4.2558,4.2616,4.2677,4.2767,4.2839,4.2883,4.2934,4.3009,4.3112,4.3078,4.3117,4.3111,4.3175,4.3308,4.3129,4.313,4.3161,4.3468,4.3496,4.3522,4.3291,4.3295,4.3298,4.3464,0,4.2584,4.2742,4.2742,4.2888,4.2962,4.2932,4.301,4.3054,4.307,4.3135,4.3152,4.3225,4.3174,4.3198,4.3259,4.3279,4.337,4.3267,4.3361,4.3364,4.3349,4.3551,4.3581,4.3735,4.3485,4.3488,4.3491,0,4.2787,4.2847,4.3001,4.305,4.3081,4.3152,4.3219,4.3282,4.3332,4.3339,4.3385,4.337,4.3462,4.339,4.3517,4.3447,4.3485,4.3501,4.3507,4.3516,4.3435,4.3565,4.3784,4.3807,4.3525,4.3522,4.3519,0,4.2915,4.3035,4.3143,4.3172,4.3232,4.3282,4.3309,4.3355,4.34,4.3459,4.3487,4.3556,4.3593,4.3647,4.3651,4.3599,4.3779,4.3707,4.3788,4.3788,4.3826,4.3824,4.4055,4.3851,4.3851,4.385,4.385,0,4.309,4.3186,4.3201,4.3268,4.3374,4.3373,4.3479,4.3501,4.3543,4.3613,4.3591,4.3657,4.3659,4.3727,4.3731,4.3835,4.3852,4.3861,4.3861,4.3863,4.3862,4.3888,4.3877,4.3856,4.3855,4.3854,4.3853,0,4.3251,4.3266,4.3382,4.343,4.3444,4.3521,4.3562,4.3625,4.364,4.3729,4.375,4.3772,4.3852,4.3862,4.3953,4.3956,4.4083,4.4071,4.4066,4.4064,4.4144,4.4137,4.44,4.4435,4.4208,4.421,4.4212,0,4.3362,4.3435,4.3492,4.3538,4.3569,4.3643,4.3689,4.3692,4.374,4.3804,4.386,4.3937,4.3999,4.4127,4.4151,4.4221,4.4212,4.4299,4.4222,4.4223,4.4214,4.421,4.4217,4.4314,4.4316,4.4318,4.432,0,4.3557,4.3562,4.3629,4.37,4.3756,4.3811,4.3863,4.3902,4.3912,4.3968,4.4049,4.4097,4.4192,4.4269,4.434,4.4367,4.4346,4.4344,4.4367,4.437,4.4364,4.4369,4.4107,4.4338,4.4336,4.4335,4.4334,4.4333,4.3697,4.3761,4.3812,4.3889,4.3929,4.3979,4.4041,4.4065,4.4133,4.4211,4.4209,4.4299,4.4348,4.4441,4.4473,4.4544,4.4515,4.4547,4.4555,4.4563,4.4572,4.4353,4.4556,4.4556,4.4555,4.4555,4.4554,0,4.3892,4.3924,4.3994,4.4069,4.413,4.4106,4.4163,4.4215,4.4295,4.4343,4.4405,4.45,4.4575,4.4607,4.468,4.4731,4.4723,4.475,4.4746,4.4754,4.4593,4.4566,4.4755,4.4755,4.4755,4.4755,4.4755,4.4755,4.4001,4.4109,4.4119,4.4247,4.4278,4.4367,4.4402,4.4448,4.4487,4.4594,4.4657,4.4678,4.472,4.4797,4.4865,4.4872,4.4901,4.4933,4.4936,4.4785,4.4765,4.4745,4.472,4.4939,4.4939,4.5091,4.5092,4.5093]}]]